| time (UTC) | temp F | wind direction | speed knots | gust knots | rain 1hr in | rain 24hr in | rain mn in | humidity % | barometer mb |
| 20260507201004 | 67 | 219 | 0.0 | 0.0 | 0.00 | 0.00 | 0.00 | 61 | 1013.3 |
| 20260507200003 | 68 | 219 | 0.0 | 0.0 | 0.00 | 0.00 | 0.00 | 61 | 1013.2 |
| 20260507195004 | 68 | 219 | 0.0 | 0.0 | 0.00 | 0.00 | 0.00 | 62 | 1013.1 |
| 20260507194004 | 68 | 219 | 0.0 | 0.0 | 0.00 | 0.00 | 0.00 | 61 | 1012.9 |
| 20260507190504 | 69 | 219 | 0.0 | 0.0 | 0.00 | 0.00 | 0.00 | 58 | 1012.5 |
| 20260507190004 | 69 | 219 | 0.0 | 0.0 | 0.00 | 0.00 | 0.00 | 58 | 1012.5 |
| 20260507185503 | 69 | 219 | 0.0 | 0.0 | 0.00 | 0.00 | 0.00 | 57 | 1012.5 |
| 20260507184504 | 70 | 219 | 0.0 | 0.0 | 0.00 | 0.00 | 0.00 | 56 | 1012.6 |
| 20260507184003 | 70 | 219 | 0.0 | 0.0 | 0.00 | 0.00 | 0.00 | 56 | 1012.5 |
| 20260507183004 | 70 | 219 | 0.0 | 0.0 | 0.00 | 0.00 | 0.00 | 55 | 1012.5 |
| 20260507181504 | 70 | 219 | 0.0 | 0.0 | 0.00 | 0.00 | 0.00 | 55 | 1012.4 |
| 20260507181004 | 70 | 219 | 0.0 | 0.0 | 0.00 | 0.00 | 0.00 | 55 | 1012.4 |
| 20260507180003 | 70 | 219 | 0.9 | 2.6 | 0.00 | 0.00 | 0.00 | 55 | 1012.0 |
| 20260507175004 | 70 | 219 | 0.9 | 2.6 | 0.00 | 0.00 | 0.00 | 54 | 1012.0 |
| 20260507174503 | 71 | 215 | 1.7 | 2.6 | 0.00 | 0.00 | 0.00 | 54 | 1011.9 |
| 20260507174004 | 71 | 215 | 1.7 | 4.3 | 0.00 | 0.00 | 0.00 | 54 | 1011.9 |
| 20260507173504 | 71 | 214 | 0.9 | 2.6 | 0.00 | 0.00 | 0.00 | 54 | 1011.8 |
| 20260507173004 | 71 | 218 | 2.6 | 4.3 | 0.00 | 0.00 | 0.00 | 53 | 1011.8 |
| 20260507172504 | 71 | 216 | 0.9 | 4.3 | 0.00 | 0.00 | 0.00 | 53 | 1011.8 |
| 20260507171504 | 71 | 219 | 1.7 | 4.3 | 0.00 | 0.00 | 0.00 | 53 | 1011.8 |
| 20260507171003 | 71 | 221 | 1.7 | 4.3 | 0.00 | 0.00 | 0.00 | 52 | 1011.9 |
| 20260507170503 | 71 | 213 | 1.7 | 2.6 | 0.00 | 0.00 | 0.00 | 52 | 1011.7 |
| 20260507165504 | 71 | 227 | 2.6 | 4.3 | 0.00 | 0.00 | 0.00 | 52 | 1011.7 |
| 20260507164503 | 72 | 206 | 2.6 | 5.2 | 0.00 | 0.00 | 0.00 | 52 | 1011.6 |
| 20260507163003 | 72 | 250 | 0.9 | 5.2 | 0.00 | 0.00 | 0.00 | 52 | 1011.6 |
| 20260507162503 | 72 | 226 | 0.0 | 2.6 | 0.00 | 0.00 | 0.00 | 53 | 1011.5 |
| 20260507161503 | 71 | 223 | 2.6 | 6.1 | 0.00 | 0.00 | 0.00 | 54 | 1011.6 |
| 20260507160504 | 72 | 233 | 4.3 | 7.8 | 0.00 | 0.00 | 0.00 | 51 | 1011.6 |
| 20260507160004 | 71 | 233 | 1.7 | 2.6 | 0.00 | 0.00 | 0.00 | 53 | 1011.6 |
| 20260507155004 | 72 | 225 | 3.5 | 6.1 | 0.00 | 0.00 | 0.00 | 53 | 1011.5 |
| 20260507154504 | 71 | 257 | 1.7 | 5.2 | 0.00 | 0.00 | 0.00 | 53 | 1011.5 |
| 20260507154004 | 71 | 253 | 0.9 | 4.3 | 0.00 | 0.00 | 0.00 | 53 | 1011.6 |
| 20260507153003 | 71 | 224 | 2.6 | 5.2 | 0.00 | 0.00 | 0.00 | 52 | 1011.7 |
| 20260507150004 | 71 | 257 | 2.6 | 5.2 | 0.00 | 0.00 | 0.00 | 52 | 1011.8 |
| 20260507145503 | 72 | 280 | 3.5 | 7.0 | 0.00 | 0.00 | 0.00 | 52 | 1011.8 |
| 20260507145003 | 72 | 207 | 2.6 | 4.3 | 0.00 | 0.00 | 0.00 | 53 | 1011.8 |
| 20260507144503 | 71 | 217 | 1.7 | 6.1 | 0.00 | 0.00 | 0.00 | 52 | 1011.8 |
| 20260507144003 | 71 | 284 | 0.9 | 4.3 | 0.00 | 0.00 | 0.00 | 53 | 1011.9 |
| 20260507143503 | 70 | 287 | 4.3 | 8.7 | 0.00 | 0.00 | 0.00 | 53 | 1012.0 |
| 20260507142504 | 70 | 266 | 1.7 | 7.0 | 0.00 | 0.00 | 0.00 | 54 | 1012.0 |
| 20260507142003 | 71 | 270 | 4.3 | 8.7 | 0.00 | 0.00 | 0.00 | 53 | 1012.0 |
| 20260507141503 | 70 | 281 | 4.3 | 7.0 | 0.00 | 0.00 | 0.00 | 53 | 1012.0 |
| 20260507140503 | 70 | 256 | 2.6 | 4.3 | 0.00 | 0.00 | 0.00 | 55 | 1012.0 |
| 20260507135003 | 70 | 257 | 0.9 | 6.1 | 0.00 | 0.00 | 0.00 | 53 | 1012.0 |
| 20260507134504 | 71 | 248 | 5.2 | 10.4 | 0.00 | 0.00 | 0.00 | 53 | 1012.1 |
| 20260507132504 | 70 | 290 | 2.6 | 6.1 | 0.00 | 0.00 | 0.00 | 55 | 1012.3 |
| 20260507132004 | 70 | 294 | 2.6 | 4.3 | 0.00 | 0.00 | 0.00 | 55 | 1012.3 |
| 20260507131504 | 70 | 277 | 3.5 | 6.1 | 0.00 | 0.00 | 0.00 | 53 | 1012.5 |
| 20260507125503 | 70 | 315 | 2.6 | 7.8 | 0.00 | 0.00 | 0.00 | 53 | 1012.4 |
| 20260507125003 | 70 | 259 | 4.3 | 7.0 | 0.00 | 0.00 | 0.00 | 52 | 1012.4 |
| 20260507124004 | 70 | 255 | 0.9 | 4.3 | 0.00 | 0.00 | 0.00 | 55 | 1012.5 |
| 20260507123503 | 69 | 253 | 2.6 | 5.2 | 0.00 | 0.00 | 0.00 | 54 | 1012.7 |
| 20260507122503 | 69 | 274 | 3.5 | 8.7 | 0.00 | 0.00 | 0.00 | 55 | 1012.6 |
| 20260507122003 | 69 | 288 | 0.9 | 5.2 | 0.00 | 0.00 | 0.00 | 56 | 1012.7 |
| 20260507121504 | 69 | 260 | 1.7 | 6.1 | 0.00 | 0.00 | 0.00 | 58 | 1012.7 |
| 20260507120504 | 69 | 301 | 2.6 | 5.2 | 0.00 | 0.00 | 0.00 | 56 | 1012.8 |
| 20260507112504 | 68 | 273 | 2.6 | 7.0 | 0.00 | 0.00 | 0.00 | 58 | 1013.1 |
| 20260507112004 | 69 | 306 | 1.7 | 5.2 | 0.00 | 0.00 | 0.00 | 59 | 1013.2 |
| 20260507111506 | 68 | 311 | 0.9 | 5.2 | 0.00 | 0.00 | 0.00 | 59 | 1013.3 |
| 20260507111003 | 68 | 273 | 2.6 | 7.8 | 0.00 | 0.00 | 0.00 | 58 | 1013.3 |
| 20260507110504 | 68 | 17 | 2.6 | 5.2 | 0.00 | 0.00 | 0.00 | 60 | 1013.3 |
| 20260507110004 | 67 | 246 | 1.7 | 8.7 | 0.00 | 0.00 | 0.00 | 59 | 1013.3 |
| 20260507105503 | 68 | 328 | 2.6 | 7.0 | 0.00 | 0.00 | 0.00 | 57 | 1013.5 |
| 20260507103004 | 67 | 344 | 0.9 | 4.3 | 0.00 | 0.00 | 0.00 | 63 | 1013.4 |
| 20260507101504 | 66 | 310 | 1.7 | 5.2 | 0.00 | 0.00 | 0.00 | 61 | 1013.7 |
| 20260507101004 | 66 | 0 | 0.0 | 2.6 | 0.00 | 0.00 | 0.00 | 64 | 1013.7 |
| 20260507092503 | 64 | 350 | 2.6 | 5.2 | 0.00 | 0.07 | 0.00 | 70 | 1013.8 |
| 20260507091504 | 63 | 328 | 2.6 | 6.1 | 0.00 | 0.07 | 0.00 | 71 | 1013.7 |
| 20260507090504 | 62 | 296 | 1.7 | 4.3 | 0.00 | 0.09 | 0.00 | 73 | 1013.6 |
| 20260507090004 | 63 | 305 | 2.6 | 6.1 | 0.00 | 0.12 | 0.00 | 73 | 1013.6 |
| 20260507083004 | 63 | 282 | 0.9 | 4.3 | 0.00 | 0.25 | 0.00 | 69 | 1013.4 |
| 20260507082504 | 64 | 305 | 1.7 | 4.3 | 0.00 | 0.25 | 0.00 | 67 | 1013.4 |
| 20260507081504 | 64 | 320 | 0.9 | 2.6 | 0.00 | 0.26 | 0.00 | 69 | 1013.4 |
| 20260507081003 | 63 | 306 | 1.7 | 2.6 | 0.00 | 0.28 | 0.00 | 69 | 1013.4 |
| 20260507074003 | 61 | 355 | 0.0 | 0.0 | 0.00 | 0.29 | 0.00 | 75 | 1013.2 |
| 20260507065003 | 59 | 355 | 0.0 | 0.0 | 0.00 | 0.30 | 0.00 | 81 | 1012.8 |
| 20260507063504 | 58 | 355 | 0.0 | 1.7 | 0.00 | 0.31 | 0.00 | 81 | 1012.8 |
| 20260507063004 | 58 | 355 | 0.0 | 0.0 | 0.00 | 0.31 | 0.00 | 82 | 1013.0 |
| 20260507062503 | 58 | 355 | 0.0 | 0.0 | 0.00 | 0.31 | 0.00 | 82 | 1012.9 |
| 20260507062003 | 57 | 355 | 0.0 | 0.0 | 0.00 | 0.31 | 0.00 | 82 | 1012.8 |
| 20260507061004 | 57 | 355 | 0.0 | 0.9 | 0.00 | 0.31 | 0.00 | 83 | 1012.7 |
| 20260507060503 | 56 | 355 | 0.9 | 1.7 | 0.00 | 0.31 | 0.00 | 83 | 1012.7 |
| 20260507055504 | 56 | 355 | 0.0 | 1.7 | 0.00 | 0.31 | 0.00 | 83 | 1012.6 |
| 20260507054004 | 56 | 355 | 0.0 | 0.9 | 0.00 | 0.31 | 0.00 | 84 | 1012.6 |
| 20260507053504 | 56 | 355 | 0.0 | 0.9 | 0.00 | 0.31 | 0.00 | 84 | 1012.5 |
| 20260507052003 | 55 | 355 | 0.9 | 1.7 | 0.00 | 0.31 | 0.00 | 85 | 1012.4 |
| 20260507051503 | 55 | 355 | 0.0 | 1.7 | 0.00 | 0.32 | 0.00 | 85 | 1012.3 |
| 20260507050003 | 56 | 355 | 0.0 | 0.0 | 0.00 | 0.32 | 0.00 | 85 | 1012.0 |
| 20260507045503 | 56 | 355 | 0.0 | 0.0 | 0.00 | 0.32 | 0.00 | 85 | 1011.9 |
| 20260507043503 | 55 | 355 | 0.0 | 0.0 | 0.00 | 0.40 | 0.00 | 85 | 1011.8 |
| 20260507042503 | 55 | 355 | 0.0 | 0.9 | 0.00 | 0.45 | 0.00 | 85 | 1011.6 |
| 20260507032504 | 55 | 346 | 0.9 | 1.7 | 0.00 | 0.57 | 0.00 | 86 | 1011.3 |
| 20260507032003 | 55 | 344 | 0.9 | 1.7 | 0.00 | 0.57 | 0.00 | 85 | 1011.3 |
| 20260507031503 | 55 | 344 | 0.9 | 1.7 | 0.00 | 0.57 | 0.00 | 85 | 1011.3 |
| 20260507030004 | 55 | 346 | 0.9 | 2.6 | 0.00 | 0.57 | 0.00 | 84 | 1011.3 |
| 20260507025504 | 55 | 346 | 0.9 | 1.7 | 0.00 | 0.57 | 0.00 | 84 | 1011.3 |
| 20260507023503 | 55 | 346 | 0.9 | 1.7 | 0.00 | 0.57 | 0.00 | 84 | 1011.2 |
| 20260507023003 | 55 | 346 | 0.0 | 2.6 | 0.00 | 0.57 | 0.00 | 83 | 1011.1 |
| 20260507022004 | 55 | 338 | 0.9 | 2.6 | 0.00 | 0.57 | 0.00 | 83 | 1011.2 |
| 20260507021004 | 55 | 333 | 0.9 | 2.6 | 0.00 | 0.57 | 0.00 | 82 | 1011.2 |
| 20260507015504 | 56 | 335 | 0.9 | 2.6 | 0.00 | 0.57 | 0.00 | 82 | 1011.2 |
| 20260507014504 | 56 | 331 | 0.9 | 2.6 | 0.00 | 0.57 | 0.00 | 82 | 1011.2 |
| 20260507013504 | 56 | 335 | 1.7 | 2.6 | 0.00 | 0.57 | 0.00 | 81 | 1011.1 |
| 20260507013004 | 56 | 333 | 0.9 | 2.6 | 0.00 | 0.57 | 0.00 | 82 | 1011.1 |
| 20260507012004 | 56 | 333 | 0.9 | 2.6 | 0.00 | 0.57 | 0.00 | 81 | 1011.2 |
| 20260507011004 | 57 | 347 | 1.7 | 2.6 | 0.00 | 0.57 | 0.00 | 80 | 1011.0 |
| 20260507005504 | 57 | 4 | 1.7 | 2.6 | 0.00 | 0.57 | 0.00 | 80 | 1010.8 |
| 20260507005004 | 57 | 355 | 0.9 | 2.6 | 0.00 | 0.57 | 0.00 | 80 | 1010.8 |
| 20260507004004 | 57 | 0 | 1.7 | 2.6 | 0.00 | 0.57 | 0.00 | 80 | 1011.0 |
| 20260507003504 | 57 | 0 | 1.7 | 2.6 | 0.00 | 0.57 | 0.00 | 80 | 1011.0 |
| 20260507002504 | 57 | 3 | 0.9 | 2.6 | 0.00 | 0.57 | 0.00 | 80 | 1011.0 |
| 20260507000504 | 57 | 356 | 0.9 | 2.6 | 0.00 | 0.57 | 0.00 | 81 | 1011.0 |
| 20260507000004 | 57 | 3 | 0.9 | 2.6 | 0.00 | 0.57 | 0.00 | 80 | 1011.1 |
| 20260506235504 | 57 | 11 | 0.9 | 2.6 | 0.00 | 0.57 | 0.00 | 81 | 1010.9 |
| 20260506235004 | 57 | 6 | 0.9 | 2.6 | 0.00 | 0.57 | 0.00 | 81 | 1011.0 |
| 20260506233504 | 57 | 355 | 0.9 | 2.6 | 0.00 | 0.57 | 0.00 | 81 | 1011.0 |
| 20260506231004 | 57 | 355 | 0.9 | 1.7 | 0.00 | 0.57 | 0.00 | 81 | 1010.6 |
| 20260506230004 | 57 | 355 | 0.9 | 2.6 | 0.00 | 0.57 | 0.00 | 80 | 1010.4 |
| 20260506225503 | 57 | 0 | 0.9 | 2.6 | 0.00 | 0.57 | 0.00 | 80 | 1010.4 |
| 20260506225004 | 57 | 0 | 0.9 | 2.6 | 0.00 | 0.57 | 0.00 | 80 | 1010.5 |
| 20260506224503 | 57 | 0 | 0.9 | 2.6 | 0.00 | 0.57 | 0.00 | 80 | 1010.4 |
| 20260506223504 | 57 | 9 | 0.9 | 2.6 | 0.00 | 0.57 | 0.00 | 80 | 1010.5 |
| 20260506222503 | 57 | 12 | 0.9 | 1.7 | 0.00 | 0.57 | 0.00 | 80 | 1010.6 |
| 20260506215504 | 58 | 13 | 0.9 | 1.7 | 0.00 | 0.57 | 0.57 | 77 | 1010.5 |
| 20260506214504 | 58 | 13 | 0.9 | 1.7 | 0.00 | 0.57 | 0.57 | 76 | 1010.3 |
| 20260506213504 | 59 | 19 | 0.9 | 2.6 | 0.00 | 0.57 | 0.57 | 75 | 1010.4 |
| 20260506213004 | 59 | 21 | 0.9 | 2.6 | 0.00 | 0.57 | 0.57 | 75 | 1010.4 |
| 20260506212004 | 58 | 25 | 1.7 | 2.6 | 0.00 | 0.57 | 0.57 | 76 | 1010.4 |
| 20260506211503 | 58 | 18 | 0.9 | 2.6 | 0.00 | 0.57 | 0.57 | 77 | 1010.4 |
| 20260506211003 | 58 | 11 | 0.9 | 2.6 | 0.00 | 0.57 | 0.57 | 77 | 1010.3 |
| 20260506210503 | 58 | 9 | 0.9 | 2.6 | 0.00 | 0.57 | 0.57 | 78 | 1010.3 |
| 20260506210004 | 58 | 11 | 0.9 | 2.6 | 0.00 | 0.57 | 0.57 | 78 | 1010.2 |
| 20260506205504 | 58 | 18 | 0.9 | 2.6 | 0.00 | 0.57 | 0.57 | 78 | 1010.2 |
| 20260506205003 | 58 | 10 | 1.7 | 4.3 | 0.00 | 0.58 | 0.57 | 78 | 1010.3 |
| 20260506204503 | 58 | 10 | 1.7 | 2.6 | 0.00 | 0.58 | 0.57 | 77 | 1010.2 |
| 20260506204003 | 58 | 24 | 0.9 | 4.3 | 0.00 | 0.59 | 0.57 | 77 | 1010.2 |
| 20260506203504 | 58 | 8 | 1.7 | 4.3 | 0.00 | 0.60 | 0.57 | 77 | 1010.2 |